Location: Franzen
(48.6167°N, 15.3833°E)
Time: 17:32:03
(UTC+00:00)

A-11 Canister half - Pass Details

Date: 30 July 2021
Orbit: 1515 x 1685 km, 47.2° (Epoch: 19 September)

Event Time Altitude Azimuth Distance (km) Brightness Sun altitude
Rises 00:13:41 0° 289° (WNW) 4,939 11.7 -21.2°
Reaches altitude 10° 00:17:53 10° 275° (W) 3,952 11.0 -20.9°
Enters shadow 00:24:20 21° 235° (SW) 3,159 10.2 -20.6°
Maximum altitude 00:24:43 21° 232° (SW) 3,155 - -20.6°
Drops below altitude 10° 00:31:31 10° 189° (S) 3,914 - -20.2°
Sets 00:35:41 0° 174° (S) 4,877 - -19.9°
